Погода в Напасе

Погода в Напасе : погода сейчас, прогноз погоды и архив. Всё, что Вы хотите узнать о погоде в Напасе!

Хотите узнать прогноз погоды в Напасе? Тогда Вам сюда: Погода в Напасе

Поиск расширенной информации на нашем сайте:

Другие новости

Новости СМИ2

Главная страница сайта

Новости сайта

02.10.2013

Напоминаем, что на нашем новом сайте вы можете получить высокодетализированные прогнозы погоды по пунктам России, СНГ и мира (включающие важные для авиации метеовеличины, такие как направление и скорость ветра, видимость, явления погоды, количество и форма облачности, нижняя и верхняя граница облачности), а также ознакомиться с разнообразными материалами по авиационной метеорологии и подборкой полезных ссылок на эту тему.

Сайт Метеоцентр.Азия посвящён разработке технологий оптимизации авиаметеорологического обслуживания, включая проектирование и перспективное создание нескольких автоматизированных авиаметеорологических систем:
- система выпуска высокодетальных прогностических карт явлений погоды для нижнего воздушного пространства по России и ближнему зарубежью;
- система верификации прогнозов TAF (выпускаемых синоптиками официальных АМСГ РФ и ближнего зарубежья) и AUTOTAF (выпускаемых сайтом Метеоцентр.Азия) - выявление ошибок, онлайн-сопоставление с фактической погодой METAR, автоматическое внесение коррективов в прогнозы при резком отклонении фактической погоды от прогноза, подсчёт оправдываемости прогнозов по элементам и в целом;
- система обработки, анализа и отображения авиаметеорологической информации для применения провайдерами метеорологической информации.

Рекомендуем: Самая актуальная информация запчасти лиаз в казахстане тут.

Погода в Напасе - сегодня

Время (UTC), дата Ветер
(°,м/с) 
Видим.   Явления Облачность Т
(°С)
Тd
(°С)
f(%) Тe
(°С)
Pmin
(гПа)
dP
(гПа)
Po
(мм)
O2
(г/м3)
Тmin Tmax R s Состояние
почвы
09 25.02.17 020 (С) 20000 м    10/0 средняя, верхняя 
[Ac lent|Ci sp]
-6.4 -9.3 80 -6  1020.5  0.5  758  314           
12 25.02.17 030 (СВ) 20000 м    8/0 средняя, верхняя 
[Ac und|Ci sp]
-7.7 -10.8 78 -10  1021.2  0.6  758  316    -5.8       
15 25.02.17 030 (СВ) 4000 м  дымка  ясно 
-10.7 -11.3 95 -13  1022.2  0.9  759  319           
18 25.02.17 040 (СВ) 4000 м  дымка  ясно 
-11.7 -13 90 -14  1022.3  0.1  759  321           
21 25.02.17 020 (С) 20000 м    ясно 
-14.4 -16.4 85 -18  1022.9  0.5  760  324           
00 26.02.17 030 (СВ) 20000 м    ясно 
-16.3 -17.6 90 -19  1023.9  760  327  -16.3      74  равномерный
сухой снег
100% 
03 26.02.17 040 (СВ) 20000 м    1/1 300 м 
[St]
-17.7 -18.9 90 -18  1025.3  1.3  761  330  -18.3         
06 26.02.17 040 (СВ) 20000 м    3/0 верхняя 
[Ci sp]
-11.8 -16.2 70 -12  1024.5  -0.7  761  322           
09 26.02.17 030 (СВ) 20000 м    10/0 средняя, верхняя 
[Ac trans|Cs]
-8.8 -15.4 59 -10  1024.1  -0.3  761  318           
12 26.02.17 100 (В) 20000 м    10/0 средняя 
[As op]
-7 -13.3 61 -10  1023.8  -0.2  760  316    -6.8       
15 26.02.17 110 (В) 20000 м    10/0 средняя 
[As op]
-8.2 -15.1 58 -11  1023.2  -0.6  760  317           
18 26.02.17 110 (В) 20000 м    10/0 средняя 
[As op]
-7.1 -12.9 63 -11  1021.8  -1.4  759  315           
21 26.02.17 110 (В) 5{10}  4000 м  слаб. снег  10/9 210 м средняя 
[Frnb|As op]
-7.2 -8.5 90 -11  1021.1  -0.7  758  315           
00 27.02.17 120 (ЮВ) 5{11}  4000 м  слаб. снег  10/9 120 м средняя 
[Frnb|As op]
-6.1 -6.9 94 -10  1020.4  -0.6  758  313  -8.5    73  равномерный
сухой снег
100% 
03 27.02.17 140 (ЮВ) 4000 м  слаб. ливневой снег  10/10 180 м кучево-дожд. 
[Cb cap]
-4.6 -5.2 96 -7  1020.3  758  311           
06 27.02.17 150 (ЮВ) 4{11}  4000 м  слаб. переохл. дождь (гололёд){ливн. осадки, снег} [диам. гололёда 1 мм]  10/10 150 м 
[St]
-2.4 -2.7 98 -5  1019.7  -0.6  757  308           
09 27.02.17 150 (ЮВ) 5{11}  4000 м  слаб. дождь{морось} [диам. гололёда 2 мм]  10/10 150 м 
[Frnb|Ns]
+0 -0.6 96 -3  1019.7  0.1  758  305           
12 27.02.17 150 (ЮВ) 6-11{14}  4000 м  слаб. дождь{морось}  10/10 240 м 
[Frnb|Ns]
+1.2 +0.1 92 -2  1017.5  -2.1  756  303    +1.2     
15 27.02.17 150 (ЮВ) 7-12{14}  20000 м  {дождь}  10/10 300 м кучево-дожд. 
[Cb cap]
+1.8 +0.2 89 -2  1014.6  -2.8  754  302           
18 27.02.17 150 (ЮВ) 7-12{19}  20000 м  {дождь}  10/10 300 м 
[Sc]
+1.7 -2 76 -2  1012.2  -2.4  752  301           
00 28.02.17 220 (ЮЗ) 7-12{18}  10 км  слаб. ливневой снег  10/10 240 м кучево-дожд. 
[Cb cap]
-0.6 -3.7 80 -5  1016.7  3.1  755  305  -0.6    0.0  72  равномерный
сухой снег
100% 
03 28.02.17 230 (ЮЗ) 4{14}  20000 м  в посл. час ливневой снег  6/6 360 м кучево-дожд. 
[Cb cap]
-2.8 -7.3 71 -6  1019.9  3.1  758  309  -3.1         
06 28.02.17 220 (ЮЗ) 5{14}  20000 м  {ливн. осадки}  6/3 300 м средняя, верхняя 
[St|Ac und|Ci fib]
-2.4 -11.1 51 -6  1021.7  1.8  759  310           
09 28.02.17 200 (Ю) 4{14}  20000 м    10/8 240 м средняя, верхняя 
[Cu hum|Ac und|Ci fib]
-2 -10.5 52 -5  1021.7  759  309           
12 28.02.17 190 (Ю) 2{10}  20000 м    10/5 1000 м верхняя 
[Sc|Ci sp]
-2.6 -9.1 61 -4  1021  -0.7  758  309    -1.2  0.0     
Время (UTC), дата Ветер
(°,м/с) 
Видим.   Явления Облачность Т
(°С)
Тd
(°С)
f(%) Тe
(°С)
Pmin
(гПа)
dP
(гПа)
Po
(мм)
O2
(г/м3)
Тmin Tmax R s Состояние
почвы

Для получения пояснительной информации подведите курсор к названию столбца.

ПОГОДА в Напасе - архив

Всё, что Вы хотите узнать о погоде в Напасе - удобно и подробно!

Выберите нужную дату (начиная с 1 января 2015* года) и нажмите кнопку "Найти".
Будут отображены архивные сводки погоды по пункту Напас, начиная с указанной даты.


Отображать данные в формате CSV (для использования в таблицах Excel)


Внимание! Наш архив погоды предназначен исключительно для личного некоммерческого использования в познавательных целях. Если Вам необходимы официальные справки о состоянии погоды (для производственных, юридических, коммерческих и т.п. целей), обращайтесь в органы Росгидромета.

*Примечание: данная дата относится к архиву по метеостанциям СССР (Россия, СНГ, Балтия).
Архив по метеостанциям Зарубежной Европы и Азии (кроме Китая) хранится 10 дней, по другим регионам земного шара (Китай, Африка, Америка, Австралия, Океания) - 1 день.

Напас - район местоположения метеостанции


Название, широта, долгота, высота метеостанции:
Напас 59.9°ш. 81.9°д. 76 м над ур. моря [Российская Федерация]

Дополнительная информация

В oтличие oт бoльшинства пoгoдных сайтoв мы публикуем пoдрoбную метеoинфoрмацию в детальнoм прoфессиoнальнoм фoрмате.

Характеристики температуры и влажнoсти вoздуха измеряются на высoте 2 м в тени вдали oт зданий и деревьев.
Скoрoсть ветра измеряется на высoте 10 м (на урoвне рoста челoвека скoрoсть ветра ниже в 1.5-2 раза). Если метеoстанция нахoдится в гoрoде или в лесу, тo скoрoсть ветра занижена на 2-4 м/с пo сравнению с oткрытым местoм. Скoрoсть ветра над акватoриями крупных рек и oзёр, а также на вершинах хoлмoв на 2-5 м/с выше, чем в oбычных услoвиях.
Атмoсфернoе давление в разных тoчках местнoсти мoжет значительнo oтличаться oт давления на метеoстанции, в зависимoсти oт услoвий рельефа (при пoдъёме на 10 м давление пoнижается примернo на 1 мм рт.ст.).